Terminal Aerodrome Forecast
Issued by NWS

Home | Current Version | Previous Version | Text Only | Print | Product List | Glossary Off
Versions: 1 2 3 4 5 6 7 8 9 10 11 12 13 14 15 16 17 18 19 20 21 22 23 24 25 26 27 28 29 30 31 32 33 34 35 36

000
FTUS43 KLOT 291600 AAB
TAFDPA
TAF AMD
KDPA 291600Z 2916/3012 30012G18KT P6SM FEW015 SCT200
     FM291700 30013G20KT P6SM FEW250
     FM300100 26007KT P6SM SKC=

USA.gov is the U.S. government's official web portal to all federal, state and local government web resources and services.